Time,TemperatureF,DewpointF,PressureIn,WindDirection,WindDirectionDegrees,WindSpeedMPH,WindSpeedGustMPH,Humidity,HourlyPrecipIn,Conditions,Clouds,dailyrainin,SoftwareType,DateUTC
2013-05-29 00:06:00,56.9,53.0,30.24,NW,313,2.0,3.0,86,0.00,,,0.00,weatherlink.com 1.10,2013-05-29 04:06:00,
2013-05-29 00:21:00,57.0,53.0,30.24,NW,311,0.0,2.0,87,0.00,,,0.00,weatherlink.com 1.10,2013-05-29 04:21:00,
2013-05-29 00:36:00,57.2,53.0,30.24,NNE,25,1.0,3.0,86,0.00,,,0.00,weatherlink.com 1.10,2013-05-29 04:36:00,
2013-05-29 00:51:00,57.5,53.0,30.23,NW,326,0.0,2.0,86,0.00,,,0.00,weatherlink.com 1.10,2013-05-29 04:51:00,
2013-05-29 01:07:00,58.2,54.0,30.23,NW,326,0.0,3.0,85,0.00,,,0.00,weatherlink.com 1.10,2013-05-29 05:07:00,
2013-05-29 01:22:00,60.7,57.0,30.23,East,98,2.0,7.0,87,0.00,,,0.00,weatherlink.com 1.10,2013-05-29 05:22:00,
2013-05-29 01:37:00,63.0,59.0,30.23,SE,126,2.0,5.0,87,0.00,,,0.00,weatherlink.com 1.10,2013-05-29 05:37:00,
2013-05-29 01:52:00,63.3,59.0,30.23,NE,49,2.0,8.0,86,0.00,,,0.00,weatherlink.com 1.10,2013-05-29 05:52:00,
2013-05-29 02:07:00,63.1,59.0,30.23,West,263,3.0,3.0,86,0.00,,,0.00,weatherlink.com 1.10,2013-05-29 06:07:00,
2013-05-29 02:22:00,63.2,58.0,30.23,ESE,119,2.0,8.0,84,0.00,,,0.00,weatherlink.com 1.10,2013-05-29 06:22:00,
2013-05-29 02:37:00,62.9,58.0,30.23,SE,136,3.0,9.0,84,0.00,,,0.00,weatherlink.com 1.10,2013-05-29 06:37:00,
2013-05-29 02:52:00,62.8,58.0,30.22,SW,214,1.0,8.0,84,0.00,,,0.00,weatherlink.com 1.10,2013-05-29 06:52:00,
2013-05-29 03:07:00,62.4,58.0,30.23,SSE,155,0.0,3.0,85,0.00,,,0.00,weatherlink.com 1.10,2013-05-29 07:07:00,
2013-05-29 03:22:00,62.4,58.0,30.24,ESE,118,2.0,8.0,85,0.00,,,0.00,weatherlink.com 1.10,2013-05-29 07:22:00,
2013-05-29 03:37:00,62.1,58.0,30.23,ESE,103,3.0,4.0,86,0.00,,,0.00,weatherlink.com 1.10,2013-05-29 07:37:00,
2013-05-29 03:52:00,61.9,58.0,30.24,SE,137,2.0,4.0,86,0.00,,,0.00,weatherlink.com 1.10,2013-05-29 07:52:00,
2013-05-29 04:07:00,61.4,58.0,30.24,NE,49,1.0,2.0,87,0.00,,,0.00,weatherlink.com 1.10,2013-05-29 08:07:00,
2013-05-29 04:22:00,60.9,57.0,30.24,NE,49,0.0,2.0,87,0.00,,,0.00,weatherlink.com 1.10,2013-05-29 08:22:00,
2013-05-29 04:37:00,59.8,56.0,30.24,NE,50,0.0,0.0,88,0.00,,,0.00,weatherlink.com 1.10,2013-05-29 08:37:00,
2013-05-29 04:52:00,59.4,56.0,30.24,NW,313,0.0,4.0,87,0.03,,,0.03,weatherlink.com 1.10,2013-05-29 08:52:00,
2013-05-29 05:07:00,59.1,55.0,30.25,North,1,0.0,1.0,87,0.03,,,0.03,weatherlink.com 1.10,2013-05-29 09:07:00,
2013-05-29 05:22:00,58.7,55.0,30.24,SSW,192,2.0,4.0,88,0.03,,,0.03,weatherlink.com 1.10,2013-05-29 09:22:00,
2013-05-29 05:37:00,58.2,55.0,30.24,East,90,0.0,1.0,88,0.03,,,0.03,weatherlink.com 1.10,2013-05-29 09:37:00,
2013-05-29 05:52:00,57.0,54.0,30.24,East,90,0.0,0.0,88,0.00,,,0.03,weatherlink.com 1.10,2013-05-29 09:52:00,
2013-05-29 06:07:00,56.3,53.0,30.25,East,90,0.0,0.0,87,0.00,,,0.03,weatherlink.com 1.10,2013-05-29 10:07:00,
2013-05-29 06:22:00,56.5,52.0,30.25,East,90,0.0,0.0,86,0.00,,,0.03,weatherlink.com 1.10,2013-05-29 10:22:00,
2013-05-29 06:37:00,56.5,52.0,30.25,East,90,0.0,0.0,86,0.00,,,0.03,weatherlink.com 1.10,2013-05-29 10:37:00,
2013-05-29 06:52:00,56.7,53.0,30.25,East,90,0.0,0.0,86,0.00,,,0.03,weatherlink.com 1.10,2013-05-29 10:52:00,
2013-05-29 07:07:00,56.7,53.0,30.26,East,90,0.0,0.0,86,0.00,,,0.03,weatherlink.com 1.10,2013-05-29 11:07:00,
2013-05-29 07:22:00,57.5,53.0,30.26,East,87,0.0,1.0,85,0.00,,,0.03,weatherlink.com 1.10,2013-05-29 11:22:00,
2013-05-29 07:37:00,58.8,55.0,30.26,NNE,30,0.0,1.0,87,0.00,,,0.03,weatherlink.com 1.10,2013-05-29 11:37:00,
2013-05-29 07:52:00,60.5,57.0,30.26,NNE,30,0.0,1.0,89,0.00,,,0.03,weatherlink.com 1.10,2013-05-29 11:52:00,
2013-05-29 08:07:00,62.2,58.0,30.26,NW,318,0.0,3.0,87,0.00,,,0.03,weatherlink.com 1.10,2013-05-29 12:07:00,
2013-05-29 08:22:00,63.7,59.0,30.26,NW,316,2.0,4.0,85,0.00,,,0.03,weatherlink.com 1.10,2013-05-29 12:22:00,
2013-05-29 08:37:00,64.4,60.0,30.27,NW,318,0.0,3.0,85,0.00,,,0.03,weatherlink.com 1.10,2013-05-29 12:37:00,
2013-05-29 08:52:00,65.6,60.0,30.27,NW,313,3.0,4.0,81,0.00,,,0.03,weatherlink.com 1.10,2013-05-29 12:52:00,
2013-05-29 09:07:00,66.3,60.0,30.27,ENE,63,1.0,6.0,79,0.00,,,0.03,weatherlink.com 1.10,2013-05-29 13:07:00,
2013-05-29 09:22:00,67.6,60.0,30.27,NNW,341,3.0,6.0,77,0.00,,,0.03,weatherlink.com 1.10,2013-05-29 13:22:00,
2013-05-29 09:37:00,69.0,61.0,30.27,NW,322,3.0,5.0,75,0.00,,,0.03,weatherlink.com 1.10,2013-05-29 13:37:00,
2013-05-29 09:52:00,70.4,61.0,30.27,SW,218,1.0,3.0,73,0.00,,,0.03,weatherlink.com 1.10,2013-05-29 13:52:00,
2013-05-29 10:07:00,70.7,60.0,30.27,ENE,68,1.0,3.0,68,0.00,,,0.03,weatherlink.com 1.10,2013-05-29 14:07:00,
2013-05-29 10:22:00,71.2,59.0,30.27,SSW,210,0.0,5.0,66,0.00,,,0.03,weatherlink.com 1.10,2013-05-29 14:22:00,
2013-05-29 10:38:00,73.0,59.0,30.26,ESE,117,4.0,7.0,61,0.00,,,0.03,weatherlink.com 1.10,2013-05-29 14:38:00,
2013-05-29 10:53:00,72.7,56.0,30.26,ESE,117,2.0,7.0,56,0.02,,,0.05,weatherlink.com 1.10,2013-05-29 14:53:00,
2013-05-29 11:08:00,72.8,56.0,30.26,SSW,198,2.0,6.0,55,0.02,,,0.05,weatherlink.com 1.10,2013-05-29 15:08:00,
2013-05-29 11:23:00,73.7,58.0,30.26,NNE,27,4.0,5.0,59,0.02,,,0.05,weatherlink.com 1.10,2013-05-29 15:23:00,
2013-05-29 11:38:00,74.6,57.0,30.26,SSE,159,5.0,7.0,55,0.02,,,0.05,weatherlink.com 1.10,2013-05-29 15:38:00,
2013-05-29 11:53:00,74.8,59.0,30.26,ESE,122,5.0,6.0,58,0.00,,,0.05,weatherlink.com 1.10,2013-05-29 15:53:00,
2013-05-29 12:08:00,74.6,58.0,30.26,SSW,205,1.0,7.0,57,0.00,,,0.05,weatherlink.com 1.10,2013-05-29 16:08:00,
2013-05-29 12:23:00,74.0,63.0,30.26,SSE,150,3.0,9.0,68,0.00,,,0.05,weatherlink.com 1.10,2013-05-29 16:23:00,
2013-05-29 12:38:00,73.6,64.0,30.26,SW,221,2.0,10.0,71,0.00,,,0.05,weatherlink.com 1.10,2013-05-29 16:38:00,
2013-05-29 12:53:00,73.3,62.0,30.26,NE,39,3.0,11.0,67,0.00,,,0.05,weatherlink.com 1.10,2013-05-29 16:53:00,
2013-05-29 13:08:00,72.6,61.0,30.26,ESE,108,4.0,9.0,68,0.00,,,0.05,weatherlink.com 1.10,2013-05-29 17:08:00,
2013-05-29 13:23:00,74.2,62.0,30.25,SE,129,4.0,9.0,65,0.00,,,0.05,weatherlink.com 1.10,2013-05-29 17:23:00,
2013-05-29 13:38:00,74.0,61.0,30.25,East,79,4.0,10.0,65,0.00,,,0.05,weatherlink.com 1.10,2013-05-29 17:38:00,
2013-05-29 13:53:00,74.6,61.0,30.25,South,183,5.0,8.0,62,0.00,,,0.05,weatherlink.com 1.10,2013-05-29 17:53:00,
2013-05-29 14:08:00,75.3,61.0,30.25,NE,56,3.0,9.0,62,0.00,,,0.05,weatherlink.com 1.10,2013-05-29 18:08:00,
2013-05-29 14:23:00,75.8,61.0,30.25,SE,132,2.0,9.0,60,0.00,,,0.05,weatherlink.com 1.10,2013-05-29 18:23:00,
2013-05-29 14:38:00,75.5,62.0,30.24,ESE,117,2.0,11.0,64,0.00,,,0.05,weatherlink.com 1.10,2013-05-29 18:38:00,
2013-05-29 14:53:00,75.3,57.0,30.24,SE,125,4.0,12.0,54,0.00,,,0.05,weatherlink.com 1.10,2013-05-29 18:53:00,
2013-05-29 15:08:00,75.5,59.0,30.23,ENE,57,3.0,8.0,56,0.00,,,0.05,weatherlink.com 1.10,2013-05-29 19:08:00,
2013-05-29 15:23:00,75.4,58.0,30.23,SSE,165,3.0,7.0,56,0.00,,,0.05,weatherlink.com 1.10,2013-05-29 19:23:00,
2013-05-29 15:38:00,75.9,60.0,30.23,East,100,8.0,10.0,58,0.00,,,0.05,weatherlink.com 1.10,2013-05-29 19:38:00,
2013-05-29 15:53:00,75.8,60.0,30.23,SW,223,1.0,9.0,58,0.00,,,0.05,weatherlink.com 1.10,2013-05-29 19:53:00,
2013-05-29 16:08:00,75.7,60.0,30.23,SSW,195,2.0,10.0,59,0.00,,,0.05,weatherlink.com 1.10,2013-05-29 20:08:00,
2013-05-29 16:23:00,75.1,61.0,30.22,ESE,113,8.0,10.0,61,0.00,,,0.05,weatherlink.com 1.10,2013-05-29 20:23:00,
2013-05-29 16:38:00,75.2,59.0,30.21,NE,49,7.0,9.0,57,0.00,,,0.05,weatherlink.com 1.10,2013-05-29 20:38:00,
2013-05-29 16:53:00,74.4,59.0,30.21,NE,49,4.0,10.0,59,0.00,,,0.05,weatherlink.com 1.10,2013-05-29 20:53:00,
2013-05-29 17:08:00,74.4,58.0,30.21,SE,143,4.0,11.0,56,0.00,,,0.05,weatherlink.com 1.10,2013-05-29 21:08:00,
2013-05-29 17:23:00,74.4,57.0,30.21,SSE,150,3.0,11.0,55,0.00,,,0.05,weatherlink.com 1.10,2013-05-29 21:23:00,
2013-05-29 17:38:00,74.3,58.0,30.21,SE,129,3.0,9.0,57,0.00,,,0.05,weatherlink.com 1.10,2013-05-29 21:38:00,
2013-05-29 17:53:00,73.9,60.0,30.22,SSE,162,3.0,6.0,62,0.00,,,0.05,weatherlink.com 1.10,2013-05-29 21:53:00,
2013-05-29 18:08:00,72.7,59.0,30.22,ESE,120,5.0,8.0,63,0.00,,,0.05,weatherlink.com 1.10,2013-05-29 22:08:00,
2013-05-29 18:23:00,72.1,58.0,30.22,SE,131,6.0,10.0,61,0.00,,,0.05,weatherlink.com 1.10,2013-05-29 22:23:00,
2013-05-29 18:38:00,71.5,57.0,30.22,ESE,110,4.0,6.0,61,0.00,,,0.05,weatherlink.com 1.10,2013-05-29 22:38:00,
2013-05-29 18:53:00,70.9,54.0,30.22,SE,142,5.0,8.0,56,0.00,,,0.05,weatherlink.com 1.10,2013-05-29 22:53:00,
2013-05-29 19:08:00,69.8,55.0,30.22,SSE,158,3.0,8.0,59,0.00,,,0.05,weatherlink.com 1.10,2013-05-29 23:08:00,
2013-05-29 19:23:00,68.9,55.0,30.22,South,183,0.0,7.0,62,0.00,,,0.05,weatherlink.com 1.10,2013-05-29 23:23:00,
2013-05-29 19:38:00,68.2,56.0,30.22,SW,219,2.0,4.0,65,0.00,,,0.05,weatherlink.com 1.10,2013-05-29 23:38:00,
2013-05-29 19:53:00,67.4,57.0,30.22,SW,221,0.0,3.0,69,0.00,,,0.05,weatherlink.com 1.10,2013-05-29 23:53:00,
2013-05-29 20:08:00,66.6,58.0,30.22,SW,225,0.0,1.0,73,0.00,,,0.05,weatherlink.com 1.10,2013-05-30 00:08:00,
2013-05-29 20:23:00,65.2,57.0,30.22,SW,221,0.0,0.0,75,0.00,,,0.05,weatherlink.com 1.10,2013-05-30 00:23:00,
2013-05-29 20:38:00,63.4,58.0,30.23,SW,220,0.0,0.0,81,0.00,,,0.05,weatherlink.com 1.10,2013-05-30 00:38:00,
2013-05-29 20:53:00,62.3,57.0,30.23,SW,221,0.0,0.0,84,0.00,,,0.05,weatherlink.com 1.10,2013-05-30 00:53:00,
2013-05-29 21:08:00,61.7,57.0,30.23,East,86,0.0,1.0,85,0.00,,,0.05,weatherlink.com 1.10,2013-05-30 01:08:00,
2013-05-29 21:23:00,60.8,57.0,30.24,East,86,0.0,0.0,86,0.00,,,0.05,weatherlink.com 1.10,2013-05-30 01:23:00,
2013-05-29 21:38:00,60.1,56.0,30.24,East,88,0.0,1.0,87,0.00,,,0.05,weatherlink.com 1.10,2013-05-30 01:38:00,
2013-05-29 21:53:00,59.2,56.0,30.24,East,86,0.0,0.0,88,0.00,,,0.05,weatherlink.com 1.10,2013-05-30 01:53:00,
2013-05-29 22:08:00,58.5,55.0,30.25,East,86,0.0,1.0,87,0.00,,,0.05,weatherlink.com 1.10,2013-05-30 02:08:00,
2013-05-29 22:23:00,57.8,54.0,30.25,East,86,0.0,0.0,87,0.00,,,0.05,weatherlink.com 1.10,2013-05-30 02:23:00,
2013-05-29 22:38:00,57.2,53.0,30.26,East,86,0.0,0.0,87,0.00,,,0.05,weatherlink.com 1.10,2013-05-30 02:38:00,
2013-05-29 22:53:00,56.7,53.0,30.26,East,86,0.0,0.0,87,0.00,,,0.05,weatherlink.com 1.10,2013-05-30 02:53:00,
2013-05-29 23:08:00,56.2,52.0,30.26,East,86,0.0,0.0,87,0.00,,,0.05,weatherlink.com 1.10,2013-05-30 03:08:00,
2013-05-29 23:23:00,55.8,52.0,30.26,East,86,0.0,0.0,86,0.00,,,0.05,weatherlink.com 1.10,2013-05-30 03:23:00,
2013-05-29 23:38:00,55.5,51.0,30.27,East,86,0.0,0.0,86,0.00,,,0.05,weatherlink.com 1.10,2013-05-30 03:38:00,
2013-05-29 23:53:00,55.3,51.0,30.27,East,86,0.0,0.0,86,0.00,,,0.05,weatherlink.com 1.10,2013-05-30 03:53:00,